OBJECT N, 44891

Orbit data source: Space-Track

You're viewing an Uncataloged Satellite

Recently launched and/or uncataloged satellites may have evolving metadata. Metadata may include but not limited to: Owner, Maufacturer, Bus, Motor, and Mission.

OBJECT N, 44891 is a satellite in SSO that was launched on Fri, 20 Dec 2019 UTC launched from the Taiyaun Space Center, China (TSC). Unknown objects in Earth's orbit typically refer to objects detected orbiting the Earth but have not yet been identified or cataloged. These objects could be anything from previously untracked satellites, spent rocket stages, debris from satellite collisions, or even natural meteoroids temporarily captured by Earth's gravity.

Loading next visibility...
Identifier
44891, 2019-093N
Orbit
SSO
Country
Flag of TBDTBD
Related business
Manufacturer
SAST
Mission
Spacecraft
Bus & Motor
Unknown
Mass
Unknown
Launch date (UTC)
2019-12-20 (7 years ago)
Launch vehicle
Unknown
Launch site
Taiyaun Space Center, China (TSC)
Object type
Unknown
Shape & HBR
Unknown shape, 0.1 m
Radar Cross Section
Medium (>0.1 m² and <1 m²)

Expand to show TLE details & history
Last TLE update: 8 hours ago

TLE from 8 hours ago
0 OBJECT N
1 44891U 19093N   26208.53971444  .00027450  00000-0  76232-3 0  9994
2 44891  98.0620  19.1174 0005365 251.3354 108.7306 15.36854740360971
Epoch: 2026-07-27T12:57Z
TLE epoch observation values (Epoch: 2026-07-27T12:57:11.327Z)
Latitude
-0.00004°
Longitude
-120.40162°
Altitude
459.69 km
Speed
7.636 km/s
True Right ascension
01h 16m 28s
True Declination
0° 00' 00"
Sunlit
Object was in daylight at epoch
Visualization orbit readout
Latitude
Unknown
Longitude
Unknown
Altitude
Unknown
Speed
Unknown
Apparent Right ascension
Unknown
Apparent Declination
Unknown
Sunlit
N/A
Visualization observer readout
Local Sidereal Time
10:32:09
Azimuth
Unknown
Elevation
Unknown
Doppler factor
Unknown
Orbital elements
Apogee altitude
456.054 km
Perigee altitude
448.725 km
Semi-major axis
6,830.527 km
Eccentricity
0.00054
Inclination
98.062°
RAAN
19.1174°
Arg. of periapsis
251.3354°
True anomaly
108.78881°
Mean anomaly
108.7306°
Eccentric anomaly
108.75971°
Mean motion
3.84469 °/min
Orbital period
93.64 mins
BSTAR
0.00076232
Loading maneuver chart data...
Computing Atmospheric mass density...
Loading historical data...
Loading historical data...
Loading historical data...
Loading historical data...
Loading historical data...
Loading historical data...
Loading historical data...

Documentation

Showing up to 5 results
|